Home > Weather > Lakewood > Past weeks

Flag for U.S.A. Weather for the Past 2 Weeks in Lakewood, New Jersey, U.S.A.

Now
39 °F

Sunny.


Feels Like: 34 °F
Forecast: 22 / 41 °F
Wind: 8 mph from Southwest

Location: Belmar-Farmdale

Current Time: Feb 6, 2016 at 4:27:24 PM

Latest Report: Feb 6, 2016 at 3:55 PM


Visibility: 10 mi

Pressure: 30.31 "Hg

Humidity: 45%

Dew point: 19 °F

Location of LakewoodLocation

Historic Weather in Lakewood — Graph

°F

Lakewood Temperature Yesterday

Maximum temperature yesterday: 41 °F (at 12:35 AM)
Minimum temperature yesterday: 28 °F (at 10:55 PM)
Average temperature yesterday: 34 °F

High & Low Weather Summary for the Past Weeks

 TemperatureHumidityPressure
High59 °F (Jan 31, 2:35 PM)82% (Feb 3, 4:35 PM)30.44 "Hg (Feb 3, 4:35 PM)
Low18 °F (Jan 25, 7:15 AM)34% (Jan 31, 2:35 PM)29.48 "Hg (Jan 29, 7:15 AM)
Average38 °F58%30.00 "Hg
* Reported Jan 22 3:15 PM — Feb 6 3:15 PM, Lakewood, Weather by CustomWeather, © 2016

Note: Actual official high and low records may vary slightly from our data, if they occured in-between our weather recording intervals... More about our weather records

Advertising

Lakewood Weather History for the Previous 24 Hours

 ConditionsComfort  
Time TempWeatherWind HumidityBarometerVisibility
3:15 PM
Sat, Feb 6
39 °FSunny.7 mph45%30.31 "Hg10 mi
2:55 PM39 °FSunny.8 mph42%30.31 "Hg10 mi
2:35 PM39 °FSunny.9 mph45%30.32 "Hg10 mi
2:15 PM39 °FSunny.7 mph45%30.33 "Hg10 mi
1:55 PM39 °FSunny.7 mph42%30.33 "Hg10 mi
1:35 PM37 °FSunny.12 mph45%30.34 "Hg10 mi
1:15 PM37 °FSunny.6 mph45%30.36 "Hg10 mi
12:55 PM37 °FSunny.10 mph45%30.37 "Hg10 mi
12:35 PM37 °FSunny.7 mph45%30.38 "Hg10 mi
12:15 PM37 °FSunny.9 mph45%30.39 "Hg10 mi
11:55 AM37 °FSunny.7 mph45%30.40 "Hg10 mi
11:35 AM37 °FSunny.8 mph45%30.41 "Hg10 mi
11:15 AM37 °FSunny.6 mph45%30.42 "Hg10 mi
10:55 AM36 °FSunny.7 mph48%30.42 "Hg10 mi
10:35 AM36 °FSunny.3 mph48%30.43 "Hg10 mi
10:15 AM36 °FSunny.6 mph48%30.44 "Hg10 mi
9:55 AM34 °FSunny.5 mph51%30.44 "Hg10 mi
9:35 AM32 °FSunny.6 mph55%30.44 "Hg10 mi
9:15 AM30 °FSunny.No wind59%30.44 "Hg10 mi
8:55 AM28 °FSunny.3 mph59%30.44 "Hg10 mi
8:35 AM27 °FSunny.6 mph59%30.44 "Hg10 mi
8:15 AM25 °FSunny.3 mph59%30.43 "Hg10 mi
7:55 AM25 °FSunny.5 mph59%30.43 "Hg10 mi
7:35 AM25 °FSunny.5 mph59%30.42 "Hg10 mi
7:15 AM21 °FSunny.6 mph68%30.41 "Hg10 mi
6:55 AM23 °FClear.3 mph63%30.41 "Hg10 mi
6:35 AM23 °FClear.3 mph63%30.41 "Hg10 mi
6:15 AM23 °FClear.No wind58%30.41 "Hg10 mi
5:55 AM21 °FClear.No wind63%30.40 "Hg10 mi
5:35 AM25 °FClear.5 mph59%30.40 "Hg10 mi
5:15 AM21 °FClear.5 mph68%30.39 "Hg10 mi
4:55 AM25 °FClear.5 mph59%30.39 "Hg10 mi
4:35 AM25 °FClear.5 mph59%30.38 "Hg10 mi
4:15 AM25 °FClear.3 mph59%30.37 "Hg10 mi
3:55 AM25 °FClear.3 mph59%30.36 "Hg10 mi
3:35 AM25 °FClear.No wind59%30.36 "Hg10 mi
3:15 AM25 °FClear.5 mph59%30.36 "Hg10 mi
2:55 AM27 °FClear.6 mph54%30.36 "Hg10 mi
2:35 AM27 °FClear.3 mph54%30.36 "Hg10 mi
2:15 AM27 °FClear.7 mph54%30.36 "Hg10 mi
1:55 AM27 °FClear.5 mph54%30.36 "Hg10 mi
1:35 AM25 °FClear.5 mph59%30.36 "Hg10 mi
1:15 AM27 °FClear.3 mph54%30.36 "Hg10 mi
12:55 AM27 °FClear.No wind54%30.35 "Hg10 mi
12:35 AM28 °FClear.7 mph51%30.34 "Hg10 mi
12:15 AM28 °FClear.8 mph51%30.33 "Hg10 mi
11:55 PM
Fri, Feb 5
28 °FClear.7 mph51%30.33 "Hg10 mi
11:15 PM28 °FClear.5 mph51%30.33 "Hg10 mi
10:55 PM28 °FClear.6 mph51%30.33 "Hg10 mi
10:35 PM30 °FClear.7 mph47%30.33 "Hg10 mi
9:55 PM30 °FClear.6 mph47%30.33 "Hg10 mi
8:55 PM32 °FClear.13 mph44%30.30 "Hg10 mi
8:35 PM34 °FClear.10 mph41%30.30 "Hg10 mi
7:35 PM34 °FClear.12 mph48%30.28 "Hg10 mi
7:15 PM34 °FClear.9 mph48%30.28 "Hg10 mi
6:55 PM34 °FClear.10 mph48%30.27 "Hg10 mi
6:35 PM34 °FClear.7 mph51%30.27 "Hg10 mi
6:15 PM36 °FClear.9 mph48%30.25 "Hg10 mi
5:35 PM36 °FClear.12 mph48%30.22 "Hg10 mi
4:55 PM37 °FScattered clouds.16 mph45%30.19 "Hg10 mi
4:35 PM37 °FPartly sunny.16 mph48%30.18 "Hg10 mi
Weather by CustomWeather, © 2016

See weather overviewHow to use our weather pages